Location: Nakusp
(50.2330°N, 117.8000°W)
Time: 07:11:03
(UTC-07:00)

Daily predictions for brighter satellites

Satellite Brightness Start Highest point End
(mag) Time Altitude Azimuth Time Altitude Azimuth Time Altitude Azimuth
COSMOS 2455 2.9 21:25:29 10° SW 21:31:31 90° ESE 21:37:36 10° NE
USA 234 3.4 21:25:54 10° ESE 21:32:29 86° NNE 21:39:06 10° WNW
SL-08 RB Rocket 4.4 21:30:22 10° SE 21:34:37 41° ENE 21:38:52 10° N
SL-16 R/B 4.5 21:31:43 10° WSW 21:36:42 31° NW 21:41:43 10° NNE
Cosmos 1758 Rocket 3.9 21:36:11 10° SSE 21:40:21 45° E 21:44:31 10° NNE
Envisat 3.6 21:40:01 10° S 21:44:59 56° W 21:50:01 10° NNW
Cosmos 1515 4.2 21:42:37 10° SSW 21:46:28 66° WNW 21:50:19 10° N
SL-27 R/B 3.7 21:44:49 10° SSE 21:47:30 22° ESE 21:50:10 10° NE
Cosmos 407 Rocket 3.6 21:43:15 10° S 21:48:25 61° ESE 21:53:33 10° NNE
BREEZE-M DEB (TANK) 2.7 21:47:08 10° SW 21:49:48 28° SSE 21:51:39 10° E
Cosmos 1805 4.2 21:48:44 10° N 21:52:22 34° ENE 21:55:51 11° SE
Cosmos 1825 Rocket 3.7 21:51:23 10° SSW 21:55:50 78° W 22:00:16 10° N
USA 238 DEB 4.3 21:52:26 10° S 21:58:45 36° ESE 22:05:04 10° NE
USA 238 4.3 21:52:33 10° S 21:58:51 36° ESE 22:05:09 10° NE
UNK 4.3 21:56:41 10° NNE 22:02:10 85° ESE 22:07:56 10° SSW
Lacrosse 4 Rocket 1.3 21:59:28 10° SSW 22:03:31 86° SE 22:07:41 10° NE
ISS -3.4 22:02:23 10° WSW 22:05:40 90° WSW 22:08:57 10° ENE
Cosmos 2084 3.9 22:02:23 10° NW 22:06:23 52° SW 22:10:11 12° SSE
Cosmos 1842 Rocket 4.3 22:02:33 10° N 22:06:41 39° ENE 22:10:19 13° SE
Cosmos 1943 Rocket 2.3 22:02:31 10° NNW 22:08:04 72° WSW 22:13:24 11° SSE
COSMOS 2406 3.9 22:04:33 10° S 22:09:43 36° ESE 22:14:55 10° NE
Cosmos 1954 Rocket 4.2 22:04:47 10° S 22:09:58 56° ESE 22:15:08 10° NNE
DELTA 2 DEB (DPAF) 4.2 22:09:56 11° SSE 22:14:14 83° ENE 22:18:45 10° NNW
Cosmos 1656 Rocket 3.8 22:08:57 10° NNW 22:14:40 70° ENE 22:19:38 14° SE
CZ-4C R/B 3.3 22:11:59 12° SSE 22:15:48 85° ENE 22:19:43 10° NNW
SeaSat 1 3.4 22:12:49 10° S 22:17:29 42° WSW 22:22:11 10° NW
Cosmos 2208 Rocket 4.0 22:14:16 10° NNW 22:19:29 83° ENE 22:23:55 14° SSE
Atlas Centaur 2 4.5 22:18:50 10° SW 22:22:24 14° S 22:25:27 11° SSE
Landsat 7 3.8 22:20:31 13° SSE 22:24:48 88° ENE 22:29:36 10° NNW
Cosmos 1943 3.9 22:19:26 10° SW 22:25:03 59° NW 22:30:43 10° NNE
Cosmos 1953 2.3 22:21:17 10° N 22:25:18 89° WSW 22:28:40 14° S
Lacrosse 5 rocket 3.2 22:25:14 10° WNW 22:28:54 32° N 22:32:45 10° ENE
CZ-4 R/B 4.0 22:25:16 10° NNE 22:30:18 89° W 22:35:20 10° SSW
CZ-4B R/B 3.9 22:25:43 10° N 22:30:47 67° WNW 22:35:58 10° SSW
Cosmos 1741 Rocket 4.4 22:30:05 11° S 22:34:53 46° ESE 22:39:58 10° NE
Cosmos 2221 3.8 22:31:16 10° N 22:34:59 27° ENE 22:37:48 15° ESE
Aureole 2 4.0 22:32:48 10° NNW 22:35:51 84° ENE 22:37:34 22° SSE
Cosmos 1346 Rocket 4.3 22:33:52 10° SW 22:37:31 36° WNW 22:41:14 10° N
Cosmos-2242 3.5 22:33:29 10° NNW 22:37:50 58° W 22:41:48 12° S
Cosmos 1842 3.5 22:36:41 10° SSW 22:40:36 70° WNW 22:44:31 10° N
Terra 1.8 22:36:48 16° SSE 22:40:37 88° ENE 22:45:25 10° NNW
Cosmos 1092 Rocket 4.3 22:36:22 15° SSE 22:41:27 51° E 22:47:29 10° NNE
Spot 4 3.9 22:38:04 17° SSE 22:41:45 76° ENE 22:46:34 10° NNW
Cosmos 1023 Rocket 4.5 22:39:20 10° SSW 22:44:34 71° ESE 22:49:50 10° NNE
Cosmos 1733 4.0 22:41:00 10° N 22:44:41 40° ENE 22:46:56 20° SE
ARGOS 4.1 22:41:17 10° S 22:46:27 44° W 22:51:40 10° NNW
Nadezhda 4 Rocket 4.0 22:42:56 12° S 22:48:50 74° E 22:55:10 10° NNE
Cosmos 1850 Rocket 4.0 22:45:13 11° S 22:50:14 63° ESE 22:55:24 10° NNE
Cosmos 1140 Rocket 3.5 22:47:15 10° SSW 22:52:30 81° ESE 22:57:46 10° NNE
Cosmos 374 Rocket 4.5 22:47:36 10° SW 22:52:42 73° SE 22:56:40 10° NE
Lacrosse 5 2.6 22:51:51 10° WNW 22:56:50 53° NNE 23:01:48 10° E
Cosmos 468 Rocket 4.4 22:52:35 10° NNW 22:57:48 55° ENE 23:01:29 19° SE
H-2A R/B 2.3 22:54:58 16° S 22:58:55 63° WSW 23:04:03 10° NNW
ATLAS 3B R/B 3.4 22:53:57 10° WSW 23:01:34 65° NW 23:08:56 10° NE
Cosmos 1544 3.4 23:05:02 10° NNW 23:08:47 63° W 23:10:59 23° S
Cosmos 1814 Rocket 4.3 23:03:34 10° NNW 23:08:49 60° ENE 23:12:25 20° SE
Cosmos 1607 3.9 23:03:54 10° SSW 23:10:08 71° SE 23:16:19 10° NE
Genesis I 4.0 23:06:47 10° NNW 23:10:40 46° NE 23:13:29 17° ESE
Cosmos 614 Rocket 3.9 23:07:38 13° SSW 23:12:14 78° ESE 23:17:29 10° NNE
Cosmos 1340 2.7 23:10:35 26° S 23:12:35 64° E 23:16:22 10° NNE
Spot 2 4.4 23:08:01 10° NNE 23:12:53 87° WNW 23:17:10 15° SSW
NOSS 3-2 (A) 3.9 23:10:04 16° S 23:14:36 43° ESE 23:20:53 10° NE
USA 234 4.0 23:11:48 19° S 23:15:57 37° SW 23:21:59 10° WNW
Cosmos 2369 3.9 23:13:02 10° NNW 23:18:41 65° ENE 23:22:37 20° SE
Cosmos 1655 Rocket 4.3 23:18:06 21° SSE 23:22:10 55° E 23:28:15 10° NNE
SL-27 R/B 4.3 23:19:44 10° WSW 23:22:41 28° WNW 23:25:39 10° N
Okean 3 Rocket 3.5 23:22:50 24° S 23:25:30 83° E 23:29:59 10° NNE
Cosmos 2228 Rocket 4.0 23:21:27 10° N 23:25:35 38° ENE 23:27:52 22° SE
SL-23 DEB 3.6 23:22:27 10° WSW 23:27:16 72° SSE 23:30:33 10° ENE
Cosmos 2026 Rocket 4.1 23:24:08 22° SSE 23:28:02 62° E 23:34:02 10° NNE
Cosmos 1470 3.3 23:24:18 10° NNW 23:28:06 51° W 23:30:11 24° SSW
Meteor 2-5 Rocket 3.7 23:25:22 19° S 23:29:36 82° E 23:35:22 10° NNE
Cosmos 1980 Rocket 3.8 23:26:38 10° NNW 23:31:29 28° NE 23:36:19 10° ESE
Cosmos 1763 Rocket 4.0 23:26:53 10° NNW 23:32:07 53° ENE 23:35:34 21° SE
Meteor 1-16 Rocket 4.2 23:27:41 10° NNW 23:33:21 86° W 23:36:58 24° S
COSMOS 2487 2.8 23:32:57 19° SW 23:35:22 66° WNW 23:38:59 10° NNE
Meteor 2-1 Rocket 4.3 23:29:34 10° NNW 23:35:31 86° ENE 23:39:06 25° SSE
Cosmos 1408 Rocket 3.9 23:35:24 28° SSE 23:37:27 52° E 23:41:48 10° NNE
CZ-4C R/B 2.4 23:33:48 20° SSW 23:37:29 53° ESE 23:43:26 10° NE
Cosmos 405 Rocket 3.6 23:38:03 28° SE 23:39:07 34° E 23:42:34 10° NNE
Cosmos 2278 3.7 23:34:17 10° NNW 23:39:59 83° WSW 23:43:20 26° SSE
Cosmos 1627 Rocket 4.4 23:37:34 22° S 23:41:47 85° E 23:47:58 10° N
Cosmos 1689 Rocket 3.6 23:40:57 24° ESE 23:42:05 31° ENE 23:45:01 10° N
ISS -3.0 23:38:58 10° W 23:42:14 67° N 23:45:30 10° E
Lacrosse 4 Rocket 4.3 23:39:55 10° W 23:42:51 18° NW 23:45:49 10° N
CZ-4B R/B 2.4 23:45:06 27° ESE 23:46:38 42° ENE 23:50:11 10° N
ALOS 2 3.0 23:46:57 27° SE 23:49:10 55° ENE 23:53:28 10° N
USA 238 DEB 4.1 23:42:19 10° SW 23:49:23 68° NW 23:56:27 10° NE
USA 238 4.1 23:42:25 10° SW 23:49:29 69° NW 23:56:33 10° NE
Cosmos 2344 4.4 23:45:48 22° SSE 23:49:46 35° ESE 23:57:28 10° NE
Cosmos 1697 Rocket 3.3 23:44:58 10° NNW 23:50:31 51° NE 23:54:45 17° SE
Cosmos 1943 Rocket 4.4 23:48:35 10° WNW 23:50:48 12° W 23:53:02 10° WSW
Cosmos 1818 3.9 23:47:45 10° NW 23:53:04 51° WSW 23:55:44 27° S
H-2A R/B 3.1 23:50:17 10° NNE 23:53:53 36° E 23:54:55 30° SE
COSMOS 2406 4.2 23:48:26 10° SW 23:53:56 47° NW 23:59:30 10° NNE
